Retour au catalogue

O3B FM12

ActifCommunicationsMEO
NORAD 40350·PAYLOAD·🇱🇺 Luxembourg

Lancé Dec 18, 2014 depuis Guiana Space Centre

Loading…

Prochains Passages (prochaines 24 heures)

TLE

FraisSource: CelesTrak SupGP

Époque: Sep 14, 2026, 16:00 UTC

1 40350C 14083C   26257.66666667  .00000000  00000+0  00000+0 0  2574
2 40350   0.0534 349.2396 0002442 183.5779  37.2037  5.00116142    17

Suivez O3B FM12 en temps réel avec AllMySat

Download on the App Store